Regional Weather Roundup
Issued by NWS State College, PA

Home | Current Version | Previous Version | Text Only | Print | Product List | Glossary On
Versions: 1 2 3 4 5 6 7 8 9 10 11 12 13 14 15 16 17 18 19 20 21 22 23 24 25 26 27 28 29 30 31 32 33 34 35 36 37 38 39 40 41 42 43 44 45 46 47 48 49 50
000
ASUS41 KCTP 260403
RWRCTP

REGIONAL WEATHER ROUNDUP
NATIONAL WEATHER SERVICE STATE COLLEGE PA
1100 PM EST SAT FEB 25 2017

Note: "fair" indicates few or no clouds below 12,000 feet with no
significant weather and/or obstructions to visibility.

* = STATION THAT DOES NOT REPORT PRECIPITATION /E.G. RAIN...SNOW...ETC/
    THUNDER OR FOG.

PAZ002>004-007>009-013>016-020>023-029>032-260500-
WESTERN PENNSYLVANIA

CITY           SKY/WX    TMP DP  RH WIND       PRES   REMARKS
ERIE           LGT SNOW  29  21  72 W18G28    29.91R
MEADVILLE      FLURRIES  25  18  74 W15G24    29.88R WCI  13
FRANKLIN*      CLOUDY    27  16  63 W17G24    29.89R WCI  14
NEW CASTLE     FLURRIES  27  18  69 W16G22    29.95R WCI  15
BEAVER COUNTY  NOT AVBL
BUTLER*        CLOUDY    28  16  59 W14G23    29.94R
PITTSBURGH INT FLURRIES  29  19  66 W21       29.94R
PITTSBURGH     CLOUDY    29  16  58 W15G23    29.93R
INDIANA*       CLOUDY    28  19  69 W14G24    29.91R
LATROBE        MIX PCPN  28  19  69 W15G22    29.93R
WASHINGTON CO* CLOUDY    28  16  59 W10G22    29.97R
$$

PAZ004>006-010>012-017>019-024>028-033>037-041-042-045-046-049>053-260500-
CENTRAL PENNSYLVANIA

CITY           SKY/WX    TMP DP  RH WIND       PRES   REMARKS
BRADFORD       FLURRIES  24  17  74 W18G30    29.77R WCI  10
DUBOIS         CLOUDY    27  16  63 W17G30    29.81R WCI  14
CLEARFIELD       N/A    N/A N/A N/A MISG      29.82R
JOHNSTOWN      CLOUDY    26  18  71 W17G36    29.79R WCI  13
ALTOONA        CLOUDY    33  19  56 W24G33    29.83R
STATE COLLEGE  CLOUDY    32  22  65 W21G29    29.81R
WILLIAMSPORT   CLOUDY    39  24  55 NW15G24   29.75R
SELINSGROVE    CLOUDY    39  22  50 W13G24    29.79R
FT INDIANTOWN  CLOUDY    41  24  51 W17G26    29.77R
CAPITAL CITY   CLOUDY    43  22  43 W16G29    29.78R
HARRISBURG     CLOUDY    42  27  55 NW20G30   29.78R
YORK           CLOUDY    41  25  53 W12       29.78R
$$

PAZ038>040-043-044-047-048-054-055-060>062-067>071-260500-
EASTERN PENNSYLVANIA

CITY           SKY/WX    TMP DP  RH WIND       PRES   REMARKS
SCRANTON       CLOUDY    37  37 100 VRB5      29.70R
MOUNT POCONO   MIX PCPN  32  31  96 NW15G24   29.64R
ALLENTOWN      PTCLDY    44  28  53 W12       29.70R
QUAKERTOWN*    CLEAR     43  30  61 NW9       29.72R
READING        PTCLDY    42  27  55 W16G28    29.73R
LANCASTER      CLOUDY    43  29  57 NW15      29.76R
COATESVILLE    PTCLDY    41  25  52 NW18      29.74R
POTTSTOWN      MOCLDY    43  27  53 W14G24    29.73R
BLUE BELL      PTCLDY    43  28  56 NW10G20   29.70R
DOYLESTOWN     MOCLDY    44  32  62 NW10G22   29.69R
WILLOW GROVE   NOT AVBL
NORTH PHILA    CLOUDY    48  31  51 NW17G25   29.70S
PHILADELPHIA   CLOUDY    49  34  56 NW16G25   29.71R
$$



USA.gov is the U.S. government's official web portal to all federal, state and local government web resources and services.